User: anonymous   Login
Location: Unspecified
(0.0000°N, 0.0000°E)
Time: 21:06:38
(UTC+00:00)
Language:

STARLINK-4081 - Orbit

View from above orbital plane
View from above orbital plane
View from above satellite
View from above satellite

Ground track
Ground track

The orbit is defined by the following mean orbital elements,

1 52660U          26145.45979903 +.00000000 +00000-0 +11013-4 0 00006
2 52660  53.2108 169.4853 0000686 114.2298 245.8766 15.08835665    08
Epoch (UTC): 25 May 2026 11:02:06
Eccentricity: 0.0000686
inclination: 53.2108°
perigee height: 539 km
apogee height: 540 km
right ascension of ascending node: 169.4853°
argument of perigee: 114.2298°
revolutions per day: 15.08835665
mean anomaly at epoch: 245.8766°

The dashed part of the orbit path shows where the satellite is in the earth's shadow,  

DLR